Location: Beaver Brook Station
(42.3793°N, 71.2203°W)
Time: 01:52:38
(UTC+00:00)

In-Cosmos 22 Rocket - Pass Details

Date: 29 October 2020
Orbit: 791 x 887 km, 81.2° (Epoch: 05 December)

Event Time Altitude Azimuth Distance (km) Brightness Sun altitude
Rises 22:38:49 0° 351° (N) 3,315 7.3 -11.1°
Reaches altitude 10° 22:41:11 10° 354° (N) 2,390 6.5 -11.6°
Maximum altitude 22:46:35 75° 79° (E) 848 4.0 -12.6°
Drops below altitude 10° 22:52:04 10° 165° (SSE) 2,429 6.5 -13.6°
Sets 22:54:30 0° 167° (SSE) 3,374 7.3 -14.0°
